sat.trackr.live / text

‹ back to catalog

STARLINK-11691 [DTC]

NORAD 64236 · 2025-119D

PAYLOAD ACTIVE UNKNOWN

§ Identity

Operator
Country
US
Launch date
2025-06-03
Launch site
AFETR
Launch vehicle
Mass (kg)
RCS (m²)

Purposes: comms

External: N2YO · Heavens-Above · Gunter

§ Orbital elements

Epoch: 2026-09-19T23:33:23.458464Z

Period
91.66 min
Inclination
42.9998°
Eccentricity
0.0001015
Mean motion
15.70953357 rev/d
Perigee alt
355.5 km
Apogee alt
356.9 km
Semi-major
6,734.3 km
B*
9.7975e-4
RAAN
117.8203°
Arg perigee
11.9787°
Mean anomaly
348.1105°
Rev number
7,580

§ Raw data

STARLINK-11691 [DTC]1 64236U 25119D   26262.98152151  .00127824  00000+0  97975-3 0  99922 64236  42.9998 117.8203 0001015  11.9787 348.1105 15.70953357 75803

JSON: /api/v1/satellites/64236 · /tle

For live sub-satellite position, see the globe view (requires WebGL).

§ Visibility from observer

Set your observer location to see the next 7 days of passes ≥ 10°. The values pass through the URL so the page stays shareable.

No JS? Fill the form by hand. The geolocation button needs JavaScript.